When you browse on this site, cookies collect data to enhance your experience and personalize the content and advertising you see.
Visit our Privacy Policy to learn more. By continuing to use the site, you agree to this use of cookies and data.
  • In Hungary
  • List of Countries
  • For 7 days
  • Water Temperature
  • Satellite Maps
  • Weather Map
  • News
  • Weather Widgets
  • user-avatar
    Login

    Hourly Weather Bals

    Today, 25 March, Monday

    Time Temperature Precipitation Wind Pressure Humidity
    00:00 +11°C° 0 mm 1 mps 749 mmHg 46%
    01:00 +11°C° 0 mm 1 mps 748 mmHg 46%
    02:00 +10°C° 0 mm 1 mps 748 mmHg 47%
    03:00 +10°C° 0 mm 1 mps 748 mmHg 48%
    04:00 +10°C° 0 mm 1 mps 747 mmHg 49%
    05:00 +9°C° 0 mm 1 mps 747 mmHg 50%
    06:00 +10°C° 0 mm 1 mps 747 mmHg 48%
    07:00 +10°C° 0 mm 0 mps 746 mmHg 47%
    08:00 +10°C° 0 mm 0 mps 746 mmHg 45%
    09:00 +13°C° 0 mm 1 mps 745 mmHg 42%
    10:00 +15°C° 0 mm 1 mps 745 mmHg 39%
    11:00 +17°C° 0 mm 2 mps 745 mmHg 36%
    12:00 +18°C° 0 mm 2 mps 744 mmHg 34%
    13:00 +20°C° 0 mm 3 mps 744 mmHg 31%
    14:00 +21°C° 0 mm 4 mps 743 mmHg 29%
    15:00 +21°C° 0 mm 3 mps 743 mmHg 29%
    16:00 +21°C° 0 mm 3 mps 742 mmHg 30%
    17:00 +21°C° 0 mm 3 mps 741 mmHg 30%
    18:00 +19°C° 0 mm 3 mps 742 mmHg 34%
    19:00 +17°C° 0 mm 2 mps 742 mmHg 38%
    20:00 +16°C° 0 mm 2 mps 742 mmHg 42%
    21:00 +15°C° 0 mm 2 mps 742 mmHg 46%
    22:00 +14°C° 0 mm 2 mps 742 mmHg 51%
    23:00 +13°C° 0 mm 2 mps 742 mmHg 56%

    Tomorrow, 26 March, Tuesday

    Time Temperature Precipitation Wind Pressure Humidity
    00:00 +13°C° 0 mm 2 mps 742 mmHg 58%
    01:00 +13°C° 0 mm 2 mps 743 mmHg 61%
    02:00 +12°C° 0 mm 3 mps 743 mmHg 64%
    03:00 +11°C° 0.1 mm 3 mps 743 mmHg 68%
    04:00 +11°C° 0.1 mm 3 mps 743 mmHg 71%
    05:00 +10°C° 0.1 mm 3 mps 744 mmHg 75%
    06:00 +10°C° 0 mm 2 mps 744 mmHg 73%
    07:00 +12°C° 0 mm 2 mps 745 mmHg 70%
    08:00 +12°C° 0 mm 2 mps 745 mmHg 68%
    09:00 +12°C° 0.1 mm 2 mps 746 mmHg 65%
    10:00 +13°C° 0.1 mm 1 mps 746 mmHg 63%
    11:00 +14°C° 0.1 mm 1 mps 746 mmHg 60%
    12:00 +14°C° 0.1 mm 1 mps 747 mmHg 60%
    13:00 +14°C° 0.1 mm 2 mps 747 mmHg 60%
    14:00 +15°C° 0.1 mm 2 mps 747 mmHg 60%
    15:00 +12°C° 0.5 mm 3 mps 747 mmHg 67%
    16:00 +10°C° 0.5 mm 5 mps 747 mmHg 74%
    17:00 +9°C° 0.5 mm 6 mps 747 mmHg 81%
    18:00 +8°C° 0.5 mm 5 mps 748 mmHg 82%
    19:00 +8°C° 0.5 mm 5 mps 748 mmHg 83%
    20:00 +7°C° 0.5 mm 4 mps 749 mmHg 84%
    21:00 +8°C° 0.2 mm 3 mps 749 mmHg 84%
    22:00 +8°C° 0.2 mm 2 mps 750 mmHg 84%
    23:00 +8°C° 0.2 mm 2 mps 750 mmHg 84%

    Day after tomorrow, 27 March, Wednesday

    Time Temperature Precipitation Wind Pressure Humidity
    00:00 +9°C° 0.1 mm 1 mps 750 mmHg 85%
    01:00 +9°C° 0.1 mm 1 mps 751 mmHg 86%
    02:00 +9°C° 0.1 mm 1 mps 751 mmHg 88%
    03:00 +9°C° 0.1 mm 1 mps 751 mmHg 88%
    04:00 +8°C° 0.1 mm 1 mps 751 mmHg 89%
    05:00 +8°C° 0.1 mm 1 mps 751 mmHg 90%
    06:00 +9°C° 0.1 mm 1 mps 751 mmHg 87%
    07:00 +9°C° 0.1 mm 1 mps 751 mmHg 84%
    08:00 +10°C° 0.1 mm 1 mps 752 mmHg 81%
    09:00 +11°C° 0.2 mm 1 mps 752 mmHg 72%
    10:00 +12°C° 0.2 mm 1 mps 752 mmHg 63%
    11:00 +13°C° 0.2 mm 2 mps 752 mmHg 54%
    12:00 +14°C° 0.1 mm 2 mps 752 mmHg 48%
    13:00 +14°C° 0.1 mm 2 mps 752 mmHg 43%
    14:00 +15°C° 0.1 mm 2 mps 752 mmHg 38%
    15:00 +15°C° 0 mm 1 mps 752 mmHg 36%
    16:00 +15°C° 0 mm 1 mps 752 mmHg 35%
    17:00 +14°C° 0 mm 0 mps 752 mmHg 33%
    18:00 +14°C° 0 mm 2 mps 752 mmHg 41%
    19:00 +11°C° 0 mm 3 mps 753 mmHg 48%
    20:00 +10°C° 0 mm 4 mps 754 mmHg 56%
    21:00 +8°C° 0 mm 5 mps 754 mmHg 54%
    22:00 +7°C° 0 mm 6 mps 755 mmHg 52%
    23:00 +6°C° 0 mm 7 mps 755 mmHg 50%

    28 March, Thursday

    Time Temperature Precipitation Wind Pressure Humidity
    00:00 +5°C° 0 mm 7 mps 755 mmHg 49%
    01:00 +5°C° 0 mm 7 mps 756 mmHg 49%
    02:00 +4°C° 0 mm 6 mps 756 mmHg 49%
    03:00 +4°C° 0.1 mm 6 mps 756 mmHg 49%
    04:00 +4°C° 0.1 mm 6 mps 757 mmHg 49%
    05:00 +3°C° 0.1 mm 5 mps 757 mmHg 49%
    06:00 +3°C° 0.1 mm 5 mps 757 mmHg 48%
    07:00 +3°C° 0.1 mm 5 mps 757 mmHg 48%
    08:00 +3°C° 0.1 mm 5 mps 758 mmHg 47%
    09:00 +5°C° 0 mm 5 mps 758 mmHg 45%
    10:00 +6°C° 0 mm 5 mps 758 mmHg 43%
    11:00 +7°C° 0 mm 4 mps 758 mmHg 42%
    12:00 +8°C° 0 mm 4 mps 758 mmHg 40%
    13:00 +9°C° 0 mm 3 mps 758 mmHg 39%
    14:00 +10°C° 0 mm 3 mps 757 mmHg 38%
    15:00 +10°C° 0 mm 3 mps 757 mmHg 38%
    16:00 +10°C° 0 mm 2 mps 757 mmHg 38%
    17:00 +10°C° 0 mm 2 mps 757 mmHg 38%
    18:00 +9°C° 0 mm 2 mps 757 mmHg 41%
    19:00 +8°C° 0 mm 2 mps 758 mmHg 44%
    20:00 +8°C° 0 mm 3 mps 758 mmHg 47%
    21:00 +7°C° 0 mm 3 mps 759 mmHg 45%
    22:00 +7°C° 0 mm 3 mps 759 mmHg 43%
    23:00 +5°C° 0 mm 4 mps 760 mmHg 41%

    29 March, Friday

    Time Temperature Precipitation Wind Pressure Humidity
    00:00 +5°C° 0 mm 3 mps 760 mmHg 42%
    01:00 +5°C° 0 mm 3 mps 760 mmHg 43%
    02:00 +5°C° 0 mm 2 mps 760 mmHg 44%
    03:00 +5°C° 0 mm 2 mps 760 mmHg 45%
    04:00 +4°C° 0 mm 2 mps 760 mmHg 47%
    05:00 +4°C° 0 mm 1 mps 760 mmHg 48%
    06:00 +5°C° 0 mm 1 mps 760 mmHg 47%
    07:00 +5°C° 0 mm 1 mps 760 mmHg 45%
    08:00 +6°C° 0 mm 1 mps 761 mmHg 44%
    09:00 +7°C° 0 mm 1 mps 760 mmHg 41%
    10:00 +8°C° 0 mm 1 mps 760 mmHg 39%
    11:00 +9°C° 0 mm 1 mps 760 mmHg 37%
    12:00 +10°C° 0 mm 1 mps 759 mmHg 36%
    13:00 +11°C° 0 mm 1 mps 759 mmHg 35%
    14:00 +11°C° 0 mm 1 mps 758 mmHg 33%
    15:00 +11°C° 0 mm 1 mps 758 mmHg 34%
    16:00 +12°C° 0 mm 1 mps 757 mmHg 34%
    17:00 +12°C° 0 mm 1 mps 757 mmHg 34%
    18:00 +11°C° 0 mm 1 mps 757 mmHg 37%
    19:00 +9°C° 0 mm 1 mps 757 mmHg 40%
    20:00 +8°C° 0 mm 1 mps 757 mmHg 44%
    21:00 +8°C° 0 mm 1 mps 757 mmHg 45%
    22:00 +7°C° 0 mm 1 mps 758 mmHg 47%
    23:00 +7°C° 0 mm 1 mps 758 mmHg 48%

    30 March, Saturday

    Time Temperature Precipitation Wind Pressure Humidity
    00:00 +7°C° 0 mm 1 mps 757 mmHg 49%
    01:00 +6°C° 0 mm 1 mps 757 mmHg 50%
    02:00 +6°C° 0 mm 1 mps 757 mmHg 51%
    03:00 +5°C° 0 mm 1 mps 757 mmHg 52%
    04:00 +5°C° 0 mm 1 mps 757 mmHg 52%
    05:00 +5°C° 0 mm 1 mps 757 mmHg 52%
    06:00 +6°C° 0 mm 1 mps 757 mmHg 51%
    07:00 +7°C° 0 mm 1 mps 757 mmHg 50%
    08:00 +8°C° 0 mm 1 mps 757 mmHg 49%
    09:00 +10°C° 0 mm 1 mps 757 mmHg 45%
    10:00 +11°C° 0 mm 1 mps 757 mmHg 42%
    11:00 +12°C° 0 mm 0 mps 757 mmHg 38%
    12:00 +14°C° 0 mm 1 mps 756 mmHg 37%
    13:00 +15°C° 0 mm 1 mps 755 mmHg 36%
    14:00 +16°C° 0 mm 1 mps 755 mmHg 35%
    15:00 +16°C° 0 mm 1 mps 755 mmHg 34%
    16:00 +16°C° 0 mm 1 mps 754 mmHg 34%
    17:00 +16°C° 0 mm 1 mps 754 mmHg 34%
    18:00 +14°C° 0 mm 1 mps 754 mmHg 38%
    19:00 +13°C° 0 mm 1 mps 754 mmHg 41%
    20:00 +12°C° 0 mm 1 mps 754 mmHg 45%
    21:00 +11°C° 0 mm 1 mps 754 mmHg 46%
    22:00 +10°C° 0 mm 2 mps 754 mmHg 47%
    23:00 +9°C° 0 mm 2 mps 754 mmHg 49%
    Show more